Location: Juzet
(42.9779°N, 0.7597°E)
Time: 02:02:52
(UTC+00:00)

SL-16 R/B - Pass Details

Date: 14 July 2020
Orbit: 842 x 846 km, 71.0° (Epoch: 04 August)

Event Time Altitude Azimuth Distance (km) Brightness Sun altitude
Rises 03:47:04 0° 334° (NNW) 3,415 5.5 -7.4°
Reaches altitude 10° 03:49:31 10° 335° (NNW) 2,476 4.8 -7.1°
Maximum altitude 03:55:13 87° 249° (WSW) 852 2.3 -6.2°
Drops below altitude 10° 04:00:53 10° 158° (SSE) 2,459 4.5 -5.4°
Sets 04:03:19 0° 158° (SSE) 3,390 5.2 -5.0°
